Regional Weather Roundup
Issued by NWS

Home | Current Version | Previous Version | Text Only | Print | Product List | Glossary On
Versions: 1 2 3 4 5 6 7 8 9 10 11 12 13 14 15 16 17 18 19 20 21 22 23 24 25 26 27 28 29 30 31 32 33 34 35 36 37 38 39 40 41 42 43 44 45 46 47 48 49 50
000
ASUS43 KMPX 251210
RWRMN
WEATHER ROUNDUP FOR MINNESOTA
NATIONAL WEATHER SERVICE TWIN CITIES/CHANHASSEN MN
600 AM CST SUN JAN 25 2015


NOTE: "FAIR" INDICATES FEW OR NO CLOUDS BELOW 12,000 FEET WITH NO
SIGNIFICANT WEATHER AND/OR OBSTRUCTIONS TO VISIBILITY. N/A MEANS
CURRENT SKY AND/OR WEATHER CONDITIONS ARE NOT AVAILABLE.

MNZ060>063-068>070-251300-
   Twin Cities Metro

CITY           SKY/WX    TMP DP  RH WIND       PRES   REMARKS
TWIN CITIES    CLOUDY    25  17  72 N17G26    29.88R WCI  12
6HR MIN TEMP:  25; 6HR MAX TEMP:  35; 6HR PCP:  0.03;

ST PAUL        CLOUDY    25  17  72 N10       29.90R WCI  15
CRYSTAL        MOCLDY    23  15  71 N14G21    29.89R WCI  11
BLAINE         CLOUDY    23  18  80 N12       29.90R WCI  12
LAKEVILLE      CLOUDY    27  21  80 N12G20    29.85R WCI  16
EDEN PRAIRIE   CLOUDY    26  18  71 N12       29.86R WCI  16
6HR MIN TEMP:  26; 6HR MAX TEMP:  36; 6HR PCP:  0.03;

SOUTH ST PAUL  CLOUDY    27  19  71 N10       29.87R WCI  17
LAKE ELMO      CLOUDY    25  18  74 N12       29.89R WCI  14
$$
MNZ001>005-007-008-013>017-022>024-027-028-251300-
   Northwest Minnesota

CITY           SKY/WX    TMP DP  RH WIND       PRES   REMARKS
BEMIDJI        CLOUDY    15  10  79 NE3       29.92F
HALLOCK        CLEAR     10   3  72 E3        30.02R
ROSEAU         MOCLDY    10   3  72 E9        30.00R WCI  -2
WARROAD        CLOUDY     9   3  78 NE10      30.00R WCI  -6
THIEF RVR FALL CLEAR     10   5  79 NE6       29.98R WCI   1
CROOKSTON      CLEAR     16  10  79 NE3       30.00R
FOSSTON        PTCLDY    10   5  79 N5        29.95R WCI   2
DETROIT LAKES  MOCLDY    23  18  80 NE6       29.92S WCI  16
MOORHEAD       CLOUDY    21  19  93 N8        29.97R WCI  12
PARK RAPIDS    CLOUDY    21  13  71 N3        29.91R
MAHNOMEN       CLOUDY    19  12  76 NE6       29.93S WCI  10
$$
MNZ006-009>011-018-025>026-251300-
   North Central Minnesota

CITY           SKY/WX    TMP DP  RH WIND       PRES   REMARKS
BAUDETTE       CLOUDY     7  -1  70 E9        29.98R WCI  -7
FLAG ISLAND    CLOUDY     7  -2  66 E3        30.01R
INTL FALLS     CLOUDY     3  -5  69 E7        30.01R WCI  -9
6HR MIN TEMP:   3; 6HR MAX TEMP:   7;

WASKISH        CLOUDY     9   3  78 NE6       29.98R WCI  -1
BIG FORK       CLOUDY    12   5  73 E5        29.95R WCI   4
LONGVILLE      CLOUDY    21  16  79 CALM      29.92R
GRAND RAPIDS   CLOUDY    19  12  73 E3        29.92S
CRANE LAKE     MOCLDY     0  -6  78 CALM      30.04R
ORR            CLOUDY     5  -4  66 CALM      29.96R
COOK           MOCLDY     5  -2  72 NE3       29.97R
WALKER         CLOUDY    18  11  75 CALM      29.93R
$$
MNZ012-019>021-037-251300-
   Northeast Minnesota

CITY           SKY/WX    TMP DP  RH WIND       PRES   REMARKS
DULUTH         FLURRIES  17  12  80 NE9       29.93R WCI   6
6HR MIN TEMP:  17; 6HR MAX TEMP:  21; 6HR PCP: TRACE;

ELY            PTCLDY    -6  -8  92 CALM      29.97F
HIBBING        CLOUDY    16   7  67 E7        29.94R WCI   6
EVELETH        CLOUDY    12   7  79 NE6       29.96S WCI   3
DULUTH HARBOR  CLOUDY    21  18  86 NE23      30.00R WCI   5
TWO HARBORS    FLURRIES  18  12  79 NE6       29.96R WCI   9
SILVER BAY     LGT SNOW  14   9  79 N5        29.97R WCI   6
GRAND MARAIS     N/A      5  -5  63 NE5       30.07R WCI  -4
G MARAIS ARPRT CLOUDY    -6 -11  77 N6        29.95R WCI -18
$$
MNZ029>031-032-039>041-046>048-054>057-064-251300-
   West Central Minnesota

CITY           SKY/WX    TMP DP  RH WIND       PRES   REMARKS
FERGUS FALLS   CLOUDY    25  21  86 N5        29.95R WCI  19
WHEATON        CLOUDY    23  21  93 N12       29.95R WCI  12
MORRIS         CLOUDY    30  27  86 N9        29.90R WCI  22
ALEXANDRIA     CLOUDY    29  25  85 NE7       29.90R WCI  22
ELBOW LAKE     MOCLDY    27  24  87 N5        29.91R WCI  22
WADENA         CLOUDY    21  18  86 NE7       29.91R WCI  13
GLENWOOD       CLOUDY    28  25  86 NE8       29.90R WCI  20
APPLETON       CLOUDY    34  30  86 N12       29.90R WCI  25
BENSON         CLOUDY    32  28  86 NE7       29.90R WCI  26
ORTONVILLE     MIX PCPN  28  25  86 NW14      29.92R WCI  17
MADISON        LGT SNOW  34  34 100 N14       29.90R WCI  24
WILLMAR        CLOUDY    30  28  93 NE12      29.89R WCI  21
$$
MNZ033>034-036-042>043-049>051-058-059-251300-
   Central Minnesota

CITY           SKY/WX    TMP DP  RH WIND       PRES   REMARKS
ST CLOUD       MOCLDY    24  17  74 NE10      29.90R WCI  14
6HR MIN TEMP:  24; 6HR MAX TEMP:  32;

SAUK CENTRE    CLOUDY    26  22  84 NE10      29.90R WCI  16
PAYNESVILLE    CLOUDY    25  23  92 N13       29.89R WCI  13
AITKIN         MOCLDY    21  14  73 E9        29.92R WCI  11
PINE RIVER     CLOUDY    25  18  74 E5        29.95R WCI  19
BRAINERD       CLOUDY    21  14  74 E10       29.92R WCI  10
STAPLES        CLOUDY    25  19  80 E6        29.91R WCI  18
LONG PRAIRIE   CLOUDY    27  21  80 NE9       29.90R WCI  17
LITTLE FALLS   MOCLDY    23  16  74 CALM      29.93R
LITCHFIELD     CLOUDY    28  27  93 NE10G16   29.89R WCI  19
BUFFALO        MOCLDY    24  19  80 N15G21    29.90R WCI  11
MAPLE LAKE     CLOUDY    26  23  85 NE9       29.90R WCI  17
$$
MNZ037-044-045-052-053-251300-
   East Central Minnesota

CITY           SKY/WX    TMP DP  RH WIND       PRES   REMARKS
PRINCETON      CLOUDY    25  18  74 N12       29.91R WCI  14
MORA           CLOUDY    19  10  68 NE10      29.94R WCI   8
CAMBRIDGE      CLOUDY    21  12  68 NE8G16    29.90R WCI  12
RUSH CITY      CLOUDY    20  14  76 NE8       29.93R WCI  11
MOOSE LAKE     CLOUDY    21  14  73 NE6       29.93S WCI  14
HINCKLEY       CLOUDY    21  14  73 NE9       29.94R WCI  11
CLOQUET        FLURRIES  19  14  79 NE8       29.94R WCI   9
MCGREGOR       CLOUDY    21  14  73 NE10G16   29.94R WCI  10
$$
MNZ071>073-080-081-089-090-097-098-251300-
   Southwest Minnesota

CITY           SKY/WX    TMP DP  RH WIND       PRES   REMARKS
MONTEVIDEO     CLOUDY    32  32 100 E8        29.90R WCI  25
GRANITE FALLS  CLOUDY    32  31  96 N5        29.89R WCI  28
CANBY          CLOUDY    32  31  98 CALM      29.90R
MARSHALL       CLOUDY    32  28  86 N12       29.88R WCI  23
REDWOOD FALLS  CLOUDY    31  28  89 NE9       29.86R WCI  23
OLIVIA         CLOUDY    28  27  93 NE15G22   29.86R WCI  17
PIPESTONE      CLOUDY    32  30  93 NE12      29.83R WCI  23
WINDOM         CLOUDY    30  30 100 N16       29.82R WCI  19
WORTHINGTON    CLOUDY    32  28  86 N15       29.81R WCI  22
JACKSON        MIX PCPN  32  32 100 N18G24    29.80R WCI  20
TRACY          CLOUDY    32  32  99 N16       29.85R WCI  21
SLAYTON        CLOUDY    31  31  98 N13       29.83R FOG     WCI  22
$$
MNZ065>067-074>077-082>085-091>093-251300-
   South Central Minnesota

CITY           SKY/WX    TMP DP  RH WIND       PRES   REMARKS
MANKATO        CLOUDY    30  25  80 NE18      29.83R WCI  18
NEW ULM        CLOUDY    28  27  93 NE12      29.85R WCI  18
ST JAMES       CLOUDY    32  30  93 N17       29.84R WCI  21
FAIRMONT       CLOUDY    34  28  80 N14       29.79R WCI  24
GLENCOE        CLOUDY    27  24  86 N10G16    29.86R WCI  18
FARIBAULT      CLOUDY    28  25  86 N15G23    29.83R WCI  17
OWATONNA       CLOUDY    30  25  80 N15       29.81R WCI  19
WASECA         CLOUDY    32  28  86 NE18G26   29.82R WCI  20
ALBERT LEA     LGT SNOW  32  30  93 N14       29.76R WCI  22
$$
MNZ078>079-086>088-094>096-251300-
   Southeast Minnesota

CITY           SKY/WX    TMP DP  RH WIND       PRES   REMARKS
ROCHESTER      CLOUDY    31  28  89 NE18      29.77R WCI  19
6HR MIN TEMP:  31; 6HR MAX TEMP:  34; 6HR PCP: TRACE;

RED WING       CLOUDY    28  21  74 NE9       29.85R WCI  20
STANTON        CLOUDY    30  24  79 NE15      29.83R WCI  19
DODGE CENTER   CLOUDY    28  27  93 NE17      29.78R WCI  16
WINONA         CLOUDY    32  28  86 E10       29.82R WCI  24
AUSTIN         MIX PCPN  32  30  93 NE13      29.75R WCI  22
PRESTON        MIX PCPN  29  27  93 NE15G21   29.76R WCI  18
$$
ABBREVIATIONS USED IN REMARKS
   TC - TEMPERATURES IN CELSIUS
  WCI - WIND CHILL INDEX
   HX - HEAT INDEX
  VSB - VISIBILITY
$$


USA.gov is the U.S. government's official web portal to all federal, state and local government web resources and services.